Regional Weather Roundup
Issued by NWS Newport/Morehead, NC

Current Version | Previous Version | Graphics & Text | Print | Product List | Glossary Off
Versions: 1 2 3 4 5 6 7 8 9 10 11 12 13 14 15 16 17 18 19 20 21 22 23 24 25 26 27 28 29 30 31 32 33 34 35 36 37 38 39 40 41 42 43 44 45 46 47 48 49 50

165
ASUS42 KMHX 191613
RWRMHX
WEATHER ROUNDUP FOR EASTERN NORTH CAROLINA
NATIONAL WEATHER SERVICE NEWPORT/MOREHEAD CITY NC
1100 AM EST THU JAN 19 2017

NOTE: "FAIR" INDICATES FEW OR NO CLOUDS BELOW 12,000 FEET
WITH NO SIGNIFICANT WEATHER AND/OR OBSTRUCTIONS TO VISIBILITY

NCZ015>017-031-032-045>047-102-103-191700-
NORTH COAST

CITY           SKY/WX    TMP DP  RH WIND       PRES   REMARKS
EDENTON        SUNNY     52  42  69 CALM      30.15R
ELIZABETH CITY SUNNY     50  40  68 N6        30.13S
KITTY HAWK     NOT AVBL
MANTEO         MOSUNNY   49  45  84 NW6       30.13S

$$

NCZ045>047-081-094-103-104-191700-
CENTRAL COAST

CITY           SKY/WX    TMP DP  RH WIND       PRES   REMARKS
FRISCO         SUNNY     51  44  77 VRB7      30.12R HAZE

$$

NCZ095-097-098-100-101-191700-
SOUTHERN COAST

CITY           SKY/WX    TMP DP  RH WIND       PRES   REMARKS
BEAUFORT       SUNNY     55  45  68 NE10      30.11F
CEDAR ISLAND   NOT AVBL
JACKSONVILLE   SUNNY     54  45  71 E6        30.11F
PINEY ISLAND   SUNNY    N/A N/A N/A NE7       30.12F
WILMINGTON     SUNNY     57  45  64 VRB6      30.11F


$$

NCZ011>013-027>030-043-044-078>080-089-090>093-098-191700-
COASTAL PLAIN

CITY           SKY/WX    TMP DP  RH WIND       PRES   REMARKS
AHOSKIE          N/A     49  38  65 CALM      30.13F
CLINTON        SUNNY     55  44  67 E3        30.12S
ELIZABETHTOWN  SUNNY     55  43  64 E5        30.11F
GOLDSBORO      SUNNY     53  44  69 NE6       30.10F
GREENVILLE     SUNNY     52  43  71 SE3       30.14F
HAVELOCK       SUNNY     54  44  69 NE9       30.12F
KENANSVILLE    SUNNY     55  43  62 NE3       30.11F
KINSTON        SUNNY     54  43  66 NE5       30.13F
NEW BERN       SUNNY     52  44  74 N5        30.12F
RICHLANDS      SUNNY     54  44  69 NE6       30.11F
ROCKY MOUNT    SUNNY     52  41  66 SE5       30.13F
WASHINGTON     SUNNY     53  42  66 CALM        N/A
WHITEVILLE     SUNNY     55  42  63 NE7       30.10F

$$

AMZ130-135-150-152-154-156-158-170-250-252-270-ANZ085-086-088-633-658-670-191700-
MARINE OBSERVATIONS

STATION/POSITION TIME  TEMP    WIND        PRES    WAVE   SWELL
                       AIR SEA DIR/SP/G            HT/PER HT/PER
                 (UTC) (F)     (DEG/KT/KT) (MB)    (FT/S) (FT/S)
CHESAPEAKE LIGHT NOT AVBL
64 E VA BEACH    1550   51 60  360/ 14/ 17 1018.5    5/ 7   3/ 7
DUCK             1542   46 45  310/  7/ 10 1019.7
2 E DUCK         1530      45                N/A     4/ 7
OREGON INLET     1542   51 49  350/  6/ 10 1019.8
13E OREGON INLT  NOT AVBL
HATTERAS CG      1542   48 54  330/  9/ 12 1019.6
DIAMOND BUOY     1550   52 76  360/ 14/ 17 1019.4    7/11   7/11
CAPE LOOKOUT     1500   50      10/ 10/ 12 1019.9
BEAUFORT LAB     1542   52 50   30/  7/ 11 1018.9
30 SE NEW RVR IN 1508   55 62   50/ 12/ 16 1019.7
30 SE NEW RVR IN 1543      62                N/A     4/ 6   2/11
27 SE WRIGHTSVLE 1508   57 69   50/ 12/ 16 1019.3
5 SE WRIGHTSVLE  1508   51      40/ 12/ 19 1019.5
225 S CAPE HAT   1550   67 71  360/ 10/ 12 1017.2    8/ 9   8/ 9
41 SE CHARLESTON 1550   69 71   60/ 14/ 16 1017.0    3/ 8   2/ 8

$$




USA.gov is the U.S. government's official web portal to all federal, state and local government web resources and services.